Location: Geys
(44.8667°N, 4.5833°E)
Time: 07:44:41
(UTC+00:00)

Daily predictions for brighter satellites

Satellite Brightness Start Highest point End
(mag) Time Altitude Azimuth Time Altitude Azimuth Time Altitude Azimuth
Tsikada Rocket 4.3 16:55:51 10° SSW 17:02:11 79° W 17:08:29 10° N
NOAA 12 4.1 16:57:38 10° SSE 17:02:51 83° ENE 17:08:07 10° NNW
SL-14 R/B 3.2 17:00:16 10° S 17:04:05 66° E 17:07:58 10° NNE
RESURS DK-1 3.0 17:01:30 10° SW 17:05:34 55° WNW 17:09:39 10° NNE
MOS 1 Rocket 4.4 17:05:11 10° NE 17:08:23 20° E 17:11:34 10° SE
ATLAS 3B R/B 3.2 17:01:42 10° NW 17:08:39 71° WSW 17:15:52 10° SSE
Cosmos 2228 3.1 17:04:59 10° N 17:09:10 53° ENE 17:13:22 10° SSE
Cosmos 1400 Rocket 4.4 17:05:31 10° NNW 17:09:25 42° W 17:13:15 10° SSW
BREEZE-M DEB (TANK) 3.6 17:07:08 10° W 17:09:53 32° SSW 17:12:50 10° SE
Meteor 2-5 Rocket 3.7 17:07:22 10° S 17:12:56 78° E 17:18:29 10° NNE
CZ-4C R/B 3.4 17:09:00 10° WSW 17:13:43 36° NW 17:19:19 10° NNE
SKYMED 2 4.4 17:10:35 10° NNE 17:14:28 31° E 17:18:18 10° SSE
Cosmos 1538 Rocket 4.5 17:10:39 10° N 17:15:26 37° ENE 17:20:12 10° SE
SJ 16-02 2.9 17:13:05 10° SE 17:15:56 17° E 17:18:47 10° NE
CZ-3B R/B 3.0 17:14:45 10° NNW 17:16:39 20° NNE 17:20:03 10° E
Cosmos 1777 Rocket 4.3 17:13:56 10° S 17:18:58 49° ESE 17:24:04 10° NNE
CORIOLIS 4.3 17:14:12 10° SSE 17:19:36 86° WSW 17:25:01 10° NNW
Cosmos 2263 Rocket 2.5 17:15:10 10° SSW 17:20:50 71° WNW 17:26:31 10° NNE
NOAA 11 4.3 17:19:33 10° SSE 17:25:03 85° WSW 17:30:36 10° NNW
Cosmos 1354 Rocket 4.5 17:20:07 10° SSW 17:25:24 66° WNW 17:30:45 10° NNE
Cosmos 1455 3.5 17:23:43 10° NNE 17:26:31 19° ENE 17:29:18 10° ESE
Cosmos 2058 Rocket 3.6 17:24:22 10° N 17:28:36 39° ENE 17:32:49 10° SE
Cosmos 1300 2.9 17:27:05 10° NNW 17:30:54 75° W 17:34:41 10° S
X-37B 2.3 17:28:41 10° SSW 17:31:13 22° SSE 17:33:14 13° ESE
ARGOS 4.1 17:33:08 10° ESE 17:37:21 24° ENE 17:41:34 10° N
Okean 1-7 Rocket 4.0 17:35:54 10° SSE 17:40:11 42° E 17:44:30 10° NNE
CREW DRAGON DEMO-1 DEB 4.1 17:38:21 10° NW 17:40:50 24° NNE 17:41:52 20° NE
Lacrosse 5 2.3 17:36:22 10° NW 17:41:11 43° NNE 17:45:00 15° E
ISS -2.8 17:40:19 10° SSW 17:43:23 34° SE 17:45:00 21° E
Cosmos 1943 4.1 17:38:01 10° NW 17:43:32 53° WSW 17:48:59 10° S
Cosmos 1726 Rocket 3.5 17:39:48 10° N 17:44:11 90° ENE 17:48:35 10° S
Cosmos 1939 Rocket 2.9 17:40:06 10° SSE 17:44:14 87° W 17:48:21 10° NNW
ERS-2 2.7 17:42:03 12° NNE 17:45:09 36° E 17:48:31 10° SSE
CZ-2C R/B 4.0 17:45:49 17° ENE 17:46:45 18° E 17:50:29 10° SE
EXPRESS MD2 4.2 17:38:00 10° WNW 17:46:51 81° NNE 17:50:21 16° ESE
Meteor 1-24 Rocket 3.9 17:41:45 10° SSW 17:47:05 69° WNW 17:52:23 10° N
COSMOS 2455 2.8 17:42:10 10° SSW 17:48:10 73° ESE 17:54:03 11° NE
Cosmos 1626 Rocket 4.4 17:47:42 10° SSE 17:51:28 29° E 17:54:01 17° NE
Cosmos 1844 4.2 17:48:05 10° S 17:53:16 39° ESE 17:57:10 17° NE
Cosmos 1833 Rocket 4.3 17:51:35 10° N 17:54:38 15° NE 17:54:41 15° NE
IRS-1C Rocket 4.0 17:49:50 10° SSE 17:55:03 70° ENE 18:00:18 10° N
CZ-4 R/B 1.5 17:52:35 10° SSE 17:56:33 49° ENE 18:00:29 10° N
Feng Yun 1-1 Rocket 4.2 17:52:20 10° SSE 17:57:45 85° WSW 18:03:19 10° NNW
COSMO-SKYMED 1 2.6 17:58:20 10° NNE 18:02:42 83° WNW 18:07:02 10° SSW
USA 267 4.2 18:04:12 21° E 18:06:48 28° SE 18:12:14 10° S
Okean-O 2.5 18:08:16 10° SSE 18:12:39 68° ENE 18:17:05 10° N
CZ-4B R/B 2.6 18:09:33 10° N 18:12:47 43° WNW 18:15:56 10° SW
CZ-2C R/B 3.3 18:08:54 10° S 18:14:09 79° WSW 18:19:45 10° NNW
Cosmos 1844 Rocket 2.6 18:09:32 10° SSW 18:15:10 72° ESE 18:19:24 18° NNE
Okean O Rocket 4.1 18:12:09 10° SSW 18:15:49 25° W 18:19:28 10° NW
H-2A R/B 1.9 18:11:42 10° SSE 18:16:37 67° ENE 18:21:41 10° N
OE (NEXTSAT) 4.2 18:13:45 10° W 18:17:12 84° N 18:17:46 60° ENE
Cosmos 923 Rocket 4.1 18:11:59 10° NNW 18:17:15 56° ENE 18:22:27 10° SE
Meteor 1-21 Rocket 4.1 18:12:28 10° S 18:17:54 64° E 18:23:24 10° NNE
Aureole 2 Rocket 2.3 18:15:38 10° SSW 18:18:36 68° WNW 18:19:28 41° N
ATLAS 2AS CENTAUR R/B 4.4 18:12:28 10° W 18:19:07 28° NNW 18:25:30 10° NNE
Cosmos 1689 Rocket 2.1 18:20:00 59° SSE 18:20:00 59° SSE 18:22:25 10° S
Cosmos 158 Rocket 3.9 18:17:20 10° NNW 18:22:41 68° ENE 18:28:02 10° SSE
Cosmos 1898 Rocket 4.0 18:18:51 10° SSE 18:23:36 35° ESE 18:23:42 35° E
Cosmos 1680 Rocket 3.6 18:19:32 10° NNW 18:24:38 49° ENE 18:26:36 33° ESE
Cosmos 1602 Rocket 3.5 18:27:12 10° S 18:31:25 56° E 18:31:35 56° E
Cosmos 1818 3.5 18:26:43 10° SW 18:32:09 87° NW 18:34:52 31° NNE
SAR-Lupe-4 3.7 18:31:28 33° N 18:32:57 71° WNW 18:36:31 10° SSW
YAOGAN 1 2.7 18:30:19 10° S 18:34:37 75° WSW 18:38:58 10° NNW
Cosmos 489 Rocket 4.5 18:30:01 10° NNW 18:36:24 85° WSW 18:42:44 10° SSE
CSL-04 Rocket 3.5 18:33:05 10° SSE 18:38:26 71° ENE 18:43:55 10° N
Helios 1A Rocket 2.9 18:35:24 10° SSE 18:39:32 81° WSW 18:43:43 10° NNW
USA 234 3.8 18:40:19 34° NE 18:42:01 40° NNE 18:48:01 10° NW
Cosmos 1092 Rocket 3.8 18:38:43 10° S 18:44:55 83° E 18:51:06 10° N
ATLAS 5 CENTAUR R/B 3.9 18:42:39 10° WNW 18:45:31 17° NNW 18:47:37 13° N
MOS 1 Rocket 4.4 18:42:49 10° N 18:46:49 38° WNW 18:50:46 10° SW
Iridium 4 Rocket 3.5 18:41:32 10° N 18:47:16 76° E 18:52:31 10° S
Cosmos 1812 Rocket 4.2 18:45:51 10° N 18:48:54 44° N 18:48:54 44° N
SJ 16-02 2.2 18:49:50 10° SW 18:54:06 48° WNW 18:55:59 29° N
Cosmos 2344 4.3 18:45:04 10° NW 18:54:07 60° NE 18:59:35 35° ESE
Cosmos 1937 Rocket 4.4 18:53:38 10° S 18:56:46 34° SSE 18:56:46 34° SSE
Cosmos 2112 Rocket 3.8 18:56:52 10° NNW 19:02:09 86° ENE 19:02:18 83° ESE
Cosmos 1455 4.0 18:58:47 10° NNW 19:02:10 31° W 19:05:33 10° SSW
CZ-4C R/B 4.5 19:00:46 10° NW 19:04:17 16° N 19:06:30 14° NNE
X-37B 3.2 19:04:22 10° WSW 19:05:31 20° WSW 19:05:31 20° WSW
Cosmos 1703 4.4 19:03:56 10° SSW 19:07:02 42° WSW 19:07:02 42° WSW
COSMOS 2406 4.2 19:11:17 10° NNW 19:14:49 36° N 19:14:49 36° N
ARGOS 3.8 19:12:03 10° S 19:17:16 52° W 19:22:31 10° NNW
Cosmos 44 4.0 19:15:17 10° SW 19:18:46 50° SW 19:18:46 50° SW
ISS -0.9 19:16:52 10° W 19:17:58 18° W 19:17:58 18° W
Lacrosse 5 2.7 19:19:24 10° WNW 19:24:13 45° SW 19:24:15 45° SW
CZ-2C R/B 2.9 19:27:19 68° WNW 19:27:31 69° WNW 19:33:04 10° SSW
CZ-4 R/B 4.4 19:29:27 10° SW 19:31:49 15° W 19:34:12 10° NW
NOSS 3-1 (C) 4.0 19:25:42 10° NW 19:33:17 88° SW 19:34:40 67° SSE
Cosmos 1553 Rocket 4.4 19:31:12 10° N 19:36:14 57° NNW 19:36:14 57° NNW
Cosmos 1833 Rocket 4.2 19:34:01 10° NNW 19:36:25 26° NNW 19:36:25 26° NNW
Cosmos 2082 Rocket 4.3 19:36:26 10° NNW 19:37:48 17° N 19:37:48 17° N
USA 229 DEB 3.9 19:42:53 10° NW 19:49:18 71° NNW 19:49:18 71° NNW
USA 267 3.5 19:51:34 62° SW 19:51:34 62° SW 19:56:53 10° SW
USA 229 4.0 19:42:59 10° NW 19:49:21 70° NNW 19:49:21 70° NNW
NOSS 3-1 (A) 4.2 19:58:16 10° NW 20:04:26 65° NW 20:04:26 65° NW
USA 234 4.5 20:27:40 35° NW 20:27:40 35° NW 20:31:12 10° NW
